Weather reports worldwide

Advertisment
Goudhurst, United Kingdom (99126): temperature & dewpoint: 19.06.2017 23:00:00 - 25.06.2017 23:00:00 (BST)Goudhurst, United Kingdom (99126): temperature 5cm: 19.06.2017 23:00:00 - 25.06.2017 23:00:00 (BST)Goudhurst, United Kingdom (99126): visibility: 19.06.2017 23:00:00 - 25.06.2017 23:00:00 (BST)Goudhurst, United Kingdom (99126): precipitation: 19.06.2017 23:00:00 - 25.06.2017 23:00:00 (BST)
Date & Time tt [°C] td [°C] tt 5cm [°C] vv [km] rr [mm]
25.06.2017 23:00:00 15,1 11,3 - - 0,0
25.06.2017 22:00:00 15,7 11,6 - - 0,0
25.06.2017 21:00:00 17,9 13,7 - - 0,0
25.06.2017 20:00:00 17,9 14,6 - - 0,0
25.06.2017 19:00:00 18,4 14,6 - - 0,0
25.06.2017 18:00:00 19,2 14,7 - - 0,0
25.06.2017 17:00:00 19,2 14,3 - - 0,0
25.06.2017 16:00:00 19,6 15,2 - - 0,0
25.06.2017 15:00:00 19,3 14,5 - - 0,0
25.06.2017 14:00:00 17,6 14,1 - - 0,0
25.06.2017 13:00:00 18,3 13,2 - - 0,0
25.06.2017 12:00:00 19,0 13,1 - - 0,0
25.06.2017 11:00:00 17,2 12,5 - - 0,0
25.06.2017 10:00:00 15,5 11,9 - 1,2 0,0
25.06.2017 09:00:00 16,0 12,0 - - 0,0
25.06.2017 08:00:00 15,1 12,1 - - 0,0
25.06.2017 07:00:00 14,7 12,1 - - 0,0
25.06.2017 06:00:00 13,9 11,3 - - 0,0
25.06.2017 05:00:00 14,2 11,2 - - 0,0
25.06.2017 04:00:00 14,8 11,9 - - 0,0
25.06.2017 03:00:00 15,8 13,4 - - 0,0
25.06.2017 02:00:00 16,1 14,7 - - 0,0
25.06.2017 01:00:00 16,2 14,8 - - 0,0
25.06.2017 00:00:00 16,3 14,6 - - 0,0
24.06.2017 23:00:00 16,4 14,6 - - 0,0
24.06.2017 22:00:00 16,6 15,1 - - 0,0
24.06.2017 21:00:00 16,8 15,1 - - 0,0
24.06.2017 20:00:00 17,0 15,4 - - 0,0
24.06.2017 19:00:00 17,0 15,4 - - 0,0
24.06.2017 18:00:00 17,0 15,5 - - 0,0
24.06.2017 17:00:00 17,1 15,6 - - 0,0
24.06.2017 16:00:00 17,5 15,7 - - 0,0
24.06.2017 15:00:00 17,1 15,5 - - 0,0
24.06.2017 14:00:00 17,3 15,8 - - 0,0
24.06.2017 13:00:00 17,2 16,3 - - 0,4
24.06.2017 12:00:00 17,0 16,2 - - 0,4
24.06.2017 11:00:00 17,4 14,9 - - 0,0
24.06.2017 10:00:00 16,9 14,6 - 3,3 0,0
24.06.2017 09:00:00 16,6 14,4 - - 0,0
24.06.2017 08:00:00 16,4 14,3 - - 0,0
24.06.2017 07:00:00 15,9 13,9 - - 0,0
24.06.2017 06:00:00 15,7 13,5 - - 0,0
24.06.2017 05:00:00 15,9 13,5 - - 0,0
24.06.2017 04:00:00 15,5 13,4 - - 0,0
24.06.2017 03:00:00 15,4 13,3 - - 0,0
24.06.2017 02:00:00 15,3 12,9 - - 0,0
24.06.2017 01:00:00 15,3 12,9 - - 0,0
24.06.2017 00:00:00 15,9 13,4 - - 0,0
23.06.2017 23:00:00 15,9 13,5 - - 0,0
23.06.2017 22:00:00 16,2 13,7 - 10 0,0
23.06.2017 21:00:00 16,5 13,6 - - 0,0
23.06.2017 20:00:00 17,0 13,5 - - 0,0
23.06.2017 19:00:00 18,4 13,8 - - 0,0
23.06.2017 18:00:00 19,5 14,1 - - 0,0
23.06.2017 17:00:00 20,3 14,2 - - 0,0
23.06.2017 16:00:00 20,2 13,2 - - 0,0
23.06.2017 15:00:00 20,5 13,9 - - 0,0
23.06.2017 14:00:00 21,2 13,7 - - 0,0
23.06.2017 13:00:00 20,5 12,8 - - 0,0
23.06.2017 12:00:00 19,4 11,9 - - 0,0
23.06.2017 11:00:00 18,7 12,1 - - 0,0
23.06.2017 10:00:00 17,4 11,6 - 19 0,0
23.06.2017 09:00:00 16,3 11,2 - - 0,0
23.06.2017 08:00:00 15,0 11,1 - - 0,0
23.06.2017 07:00:00 13,4 11,0 - - 0,0
23.06.2017 06:00:00 12,3 11,1 - - 0,0
23.06.2017 05:00:00 11,8 10,6 - - 0,0
23.06.2017 04:00:00 12,8 10,7 - - 0,0
23.06.2017 03:00:00 14,2 11,6 - - 0,0
23.06.2017 02:00:00 14,9 12,6 - - 0,0
23.06.2017 01:00:00 15,6 13,1 - - 0,0
23.06.2017 00:00:00 16,2 13,1 - - 0,0
22.06.2017 23:00:00 16,3 14,0 - - 0,0
22.06.2017 22:00:00 17,2 14,9 - - 0,0
22.06.2017 21:00:00 18,0 14,0 - - 0,0
22.06.2017 20:00:00 20,0 14,4 - - 0,0
22.06.2017 19:00:00 20,7 14,1 - - 0,0
22.06.2017 18:00:00 20,9 14,2 - - 0,0
22.06.2017 17:00:00 21,5 14,4 - - 0,0
22.06.2017 16:00:00 23,3 14,6 - - 0,0
22.06.2017 15:00:00 22,5 17,1 - - 0,0
22.06.2017 14:00:00 21,1 16,7 - - 0,0
22.06.2017 13:00:00 20,3 17,3 - - 0,0
22.06.2017 12:00:00 17,6 16,4 - - 1,2
22.06.2017 11:00:00 19,6 16,3 - - 0,0
22.06.2017 10:00:00 20,0 16,1 - 1,9 0,0
22.06.2017 09:00:00 19,2 16,1 - - 0,0
22.06.2017 08:00:00 17,7 15,5 - - 0,0
22.06.2017 07:00:00 17,7 15,1 - - 0,0
22.06.2017 06:00:00 17,9 15,1 - - 0,0
22.06.2017 05:00:00 17,5 15,7 - - 0,0
22.06.2017 04:00:00 17,6 16,2 - - 0,0
22.06.2017 03:00:00 17,4 15,7 - - 0,0
22.06.2017 02:00:00 19,2 17,0 - - 0,0
22.06.2017 01:00:00 18,9 16,6 - - 0,0
22.06.2017 00:00:00 19,0 17,1 - - 0,0
21.06.2017 23:00:00 19,6 17,2 - - 0,0
21.06.2017 22:00:00 21,0 17,2 - - 0,0
21.06.2017 21:00:00 23,6 18,0 - - 0,0
21.06.2017 20:00:00 27,1 17,7 - - 0,0
21.06.2017 19:00:00 29,4 17,6 - - 0,0
21.06.2017 18:00:00 30,5 16,1 - - 0,0
21.06.2017 17:00:00 30,7 16,9 - - 0,0
21.06.2017 16:00:00 30,5 16,3 - - 0,0
21.06.2017 15:00:00 30,0 16,4 - - 0,0
21.06.2017 14:00:00 29,7 19,1 - - 0,0
21.06.2017 13:00:00 28,8 18,2 - - 0,0
21.06.2017 12:00:00 27,4 18,0 - - 0,0
21.06.2017 11:00:00 26,5 18,7 - - 0,0
21.06.2017 10:00:00 24,4 18,4 24,4 - 0,0
21.06.2017 09:00:00 22,2 18,0 - - 0,0
21.06.2017 08:00:00 19,9 17,5 - - 0,0
21.06.2017 07:00:00 17,6 17,3 - - 0,0
21.06.2017 06:00:00 14,4 14,3 - - 0,0
21.06.2017 05:00:00 13,9 13,6 - - 0,0
21.06.2017 04:00:00 14,3 14,0 - - 0,0
21.06.2017 03:00:00 14,6 14,1 - - 0,0
21.06.2017 02:00:00 15,1 14,8 - - 0,0
21.06.2017 01:00:00 15,2 14,4 - - 0,0
21.06.2017 00:00:00 15,9 14,9 - - 0,0
20.06.2017 23:00:00 16,4 15,5 - - 0,0
20.06.2017 22:00:00 17,1 15,1 - - 0,0
20.06.2017 21:00:00 19,7 14,5 - - 0,0
20.06.2017 20:00:00 21,8 16,2 - - 0,0
20.06.2017 19:00:00 23,6 16,2 - - 0,0
20.06.2017 18:00:00 25,2 17,4 - - 0,0
20.06.2017 17:00:00 26,5 18,1 - - 0,0
20.06.2017 16:00:00 28,2 18,0 - - 0,0
20.06.2017 15:00:00 27,6 17,9 - - 0,0
20.06.2017 14:00:00 27,5 17,8 - - 0,0
20.06.2017 13:00:00 27,3 17,3 - - 0,0
20.06.2017 12:00:00 25,8 17,4 - - 0,0
20.06.2017 11:00:00 25,0 17,6 - - 0,0
20.06.2017 10:00:00 23,5 18,6 23,5 17 0,0
20.06.2017 09:00:00 21,4 17,7 - - 0,0
20.06.2017 08:00:00 19,1 17,0 - - 0,0
20.06.2017 07:00:00 16,0 15,9 - - 0,0
20.06.2017 06:00:00 12,5 12,3 - - 0,0
20.06.2017 05:00:00 12,0 11,7 - - 0,0
20.06.2017 04:00:00 12,6 12,2 - - 0,0
20.06.2017 03:00:00 13,6 13,3 - - 0,0
20.06.2017 02:00:00 14,1 13,6 - - 0,0
20.06.2017 01:00:00 15,0 14,4 - - 0,0
20.06.2017 00:00:00 16,1 15,4 - - 0,0
19.06.2017 23:00:00 17,0 15,9 - - 0,0

tt = temperature
td = dewpoint
tt 5cm = temperature 5cm
vv = visibility
rr = precipitation

Next stations